Погода в Куме

Иран     34°38′29″N   50°52′28″E
темп.,
°C
ветер,
м/с
пор.,
м/с
влажн.,
%
обл.,
%
осадки,
мм/ч
давл.,
гПа
погр.,
м
13 мая, чт
чт1301:30+21зюз235495 0.0 1013135
04:30+20сз125617 0.0 101262
07:30+21зсз11500 0.0 1013127
10:30+24сз21391 0.0 1013696
13:30+27всв11290 0.0 10101265
16:30+29вюв44264 0.0 10071707
19:30+21зюз81247100 3.1 1012469
22:30+23зсз453965 3.4 1012526
14 мая, пт
пт1401:30+21юв7954100 0.2 1014575
04:30+20зсз1257100 0.2 1012232
07:30+21с0155100 0.0 1014327
10:30+23зсз114699 0.0 1013912
13:30+26в343476 0.0 10111708
16:30+28в55304 0.0 10082209
19:30+20ссз14135799 0.9 1013637
22:30+19юз4460100 3.9 1015508
15 мая, сб
сб1501:30+19зсз455828 0.3 1013496
04:30+19сз236192 0.3 1012238
07:30+19зсз336190 0.0 1014253
10:30+22св234699 0.0 1013967
13:30+26в56305 0.0 10111604
16:30+28в66175 0.0 10082208
19:30+27всв46177 0.0 1008607
22:30+26в232471 0.0 1010134
16 мая, вс
вс1601:30+22зсз3447100 0.0 1010118
04:30+21з2351100 0.0 1011114
07:30+21зюз11485 0.0 1012211
10:30+25вюв46274 0.0 10111258
13:30+28в67160 0.0 10092234
16:30+29всв55160 0.0 10072535
19:30+28всв451798 0.0 1008498
22:30+27вюв342010 0.0 1009120
17 мая, пн
пн1701:30+25ююв12270 0.0 100964
04:30+23ююв11375 0.0 100918
07:30+24ююв00340 0.0 101041
10:30+27в22220 0.0 1010986
13:30+30в33180 0.0 10091246
16:30+32всв32160 0.0 10071697
19:30+31в45174 0.0 1006483
22:30+30в34206 0.0 1008131